Regional Weather Roundup
Issued by NWS

Home | Current Version | Previous Version | Text Only | Print | Product List | Glossary Off
Versions: 1 2 3 4 5 6 7 8 9 10 11 12 13 14 15 16 17 18 19 20 21 22 23 24 25 26 27 28 29 30 31 32 33 34 35 36 37 38 39 40 41 42 43 44 45 46 47 48 49 50

000
ASUS43 KDTX 190901
RWRMI
MICHIGAN HOURLY REGIONAL WEATHER ROUNDUP
NATIONAL WEATHER SERVICE DETROIT/PONTIAC MI
500 AM EDT SAT APR 19 2014

NOTE: "FAIR" INDICATES FEW OR NO CLOUDS BELOW 12,000 FEET WITH NO
SIGNIFICANT WEATHER AND/OR OBSTRUCTION TO VISIBILITY.

MIZ047>049-052>055-059>063-066>070-074>076-081>083-191000-
SOUTHEAST LOWER MICHIGAN

CITY           SKY/WX    TMP DP  RH WIND       PRES   REMARKS
ADRIAN         CLEAR     36  29  75 NE9       30.38R WCI  29
ALMA           CLEAR     30  26  83 N3        30.43S
ANN ARBOR      CLEAR     34  27  75 NE7       30.38S WCI  28
BAD AXE        CLEAR     29  26  91 CALM      30.43R
CARO           CLEAR     29  28  96 CALM      30.42S
DETROIT CITY   CLEAR     36  27  69 N7        30.39S WCI  30
DETROIT        CLEAR     36  28  73 N9        30.39S WCI  29
FLINT          CLEAR     33  27  78 NE6       30.42R WCI  28
GROSSE ILE     CLEAR     37  28  70 NE10      30.37S WCI  30
HILLSDALE      CLEAR     39  34  82 NE9       30.35R WCI  33
HOWELL         CLEAR     32  28  86 NE5       30.39S WCI  27

CITY           SKY/WX    TMP DP  RH WIND       PRES   REMARKS
JACKSON        CLEAR     34  28  79 NE9       30.38R WCI  27
LAMBERTVILLE   CLEAR     37  30  75 NE3       30.38R
LANSING        CLEAR     31  27  85 NE5       30.41R WCI  26
LAPEER         FAIR      29  28  99 CALM      30.42R FOG
MASON          PTCLDY    33  30  90 NE5       30.40R WCI  28
MONROE         CLEAR     36  28  75 NE6       30.37R WCI  31
MT. CLEMENS    CLEAR     30  29  94 N8        30.37F WCI  23
PONTIAC        CLEAR     32  26  78 N8        30.38S WCI  25
PORT HOPE        N/A     34  32  92 VRB3      30.42R
PORT HURON     CLEAR     30  28  93 N6        30.41S WCI  24
TRI CITIES     CLEAR     30  24  78 N6        30.44R WCI  24
TROY           CLEAR     33  30  88 N3        30.40F
SAGINAW HB     CLEAR     32  28  86 CALM      30.43R
YPSILANTI      CLEAR     37  27  67 NE8       30.39R WCI  31
$$
MIZ043>046-050>051-056>058-064>065-071>073-077>080-191000-
SOUTHWEST LOWER MICHIGAN

CITY           SKY/WX    TMP DP  RH WIND       PRES   REMARKS
BATTLE CREEK   CLEAR     36  30  79 NE9       30.37R WCI  29
BENTON HARBOR  CLEAR     36  29  75 NE9       30.35F WCI  29
BIG RAPIDS     CLEAR     27  24  88 CALM      30.42S
COLDWATER      CLEAR     37  34  89 NE8       30.35R WCI  30
FREMONT        FAIR      31  26  80 E5        30.41F WCI  27
HOLLAND        CLEAR     36  26  67 NE8       30.40R WCI  30
GRAND RAPIDS   CLEAR     34  26  72 NE9       30.40S WCI  27
IONIA          FAIR      32  28  85 NE7       30.40S WCI  25
KALAMAZOO      CLEAR     37  30  75 NE6       30.36S WCI  32
LUDINGTON      CLEAR     29  27  92 E3        30.44R
MARSHALL       CLEAR     35  31  85 NE7       30.37R WCI  29
MOUNT PLEASANT CLEAR     30  28  92 CALM      30.44R
MUSKEGON       CLEAR     34  24  67 E10       30.41F WCI  26
SOUTH HAVEN    CLEAR     35  28  75 E7        30.36S WCI  29
$$
MIZ016>042-191000-
NORTHERN LOWER MICHIGAN

CITY           SKY/WX    TMP DP  RH WIND       PRES   REMARKS
ALPENA         CLEAR     28  27  96 N5        30.45R WCI  23
BEAVER ISLAND  CLEAR     24  23  96 CALM      30.47S
BELLAIRE       CLEAR     24  23  94 CALM      30.46S
CADILLAC       CLEAR     24  23  98 CALM      30.40S
CHARLEVOIX     CLEAR     27  26  96 CALM      30.49S
FRANKFORT      CLEAR     27  25  94 CALM      30.45S
GAYLORD        CLEAR     27  25  92 CALM      30.43R
GRAYLING       CLEAR     19  18  96 CALM      30.44R
HARBOR SPRINGS CLEAR     27  26  96 CALM      30.47R
HOUGHTON LAKE  CLEAR     27  24  89 CALM      30.43R
MANISTEE       CLEAR     28  25  86 E8        30.44S WCI  20
OSCODA         CLEAR     30  28  91 N7        30.44R WCI  23
PELLSTON       CLEAR     23  20  88 W3        30.48R
ROGERS CITY    CLEAR     27  27  99 W3        30.48R
TRAVERSE CITY  CLEAR     25  23  92 CALM      30.44S
$$
MIZ007>008-015-191000-
EASTERN UPPER MICHIGAN

CITY           SKY/WX    TMP DP  RH WIND       PRES   REMARKS
KINROSS        CLOUDY    28  28 100 N3        30.47R VSB 1/4
MACKINAC ISLAN FOG       28  28 100 NE6       30.47R VSB 3/4 WCI  22
NEWBERRY       FOG       23  23  99 N3        30.46S VSB 3/4
S. S. MARIE    FOG       27  25  92 CALM      30.47R VSB 1
MUNISING         N/A     24  21  88 CALM      30.45F
$$
MIZ004>006-011>014-085-191000-
CENTRAL UPPER MICHIGAN

CITY           SKY/WX    TMP DP  RH WIND       PRES   REMARKS
MANISTIQUE     CLEAR     25  24  95 N5        30.46S WCI  19
ESCANABA       CLEAR     25  23  93 CALM      30.45S
MENOMINEE      PTCLDY    28  25  86 CALM      30.45R
SAWYER-GWINN   PTCLDY    19  17  91 CALM      30.43R
$$
MIZ001>003-009>011-084-191000-
WESTERN UPPER MICHIGAN

CITY           SKY/WX    TMP DP  RH WIND       PRES   REMARKS
IRON MOUNTAIN  PTCLDY    25  22  88 CALM      30.42R
HOUGHTON       CLOUDY    29  24  82 E9        30.40S WCI  20
COPPER HARBOR    N/A     25  22  88 SW5       30.44R WCI  19
IRONWOOD       CLOUDY    36  23  60 SE9       30.30S WCI  29
$$

ABBREVIATIONS USED IN REMARKS
   TC - TEMPERATURE IN CELSIUS
  WCI - WIND CHILL INDEX
   HX - HEAT INDEX
  VSB - VISIBILITY




USA.gov is the U.S. government's official web portal to all federal, state and local government web resources and services.